Home > Weather > Helena > Past weeks

Flag for USA Past Weather in Helena, Montana, USA — Yesterday and Last 2 Weeks

Now
78 °F

Sunny.


Feels Like: 78 °F
Forecast: 49 / 80 °F
Wind: 9 mph from Northeast

Location: Helena Regional Airport

Current Time: Jun 26, 2016 at 2:48:47 PM

Latest Report: Jun 26, 2016 at 1:53 PM


Visibility: 10 mi

Pressure: 30.17 "Hg (26.18 "Hg at 1239m altitude)

Humidity: 20%

Dew Point: 34 °F

Location of HelenaLocation

Past Weather in Helena — Graph

°F

Helena Temperature Yesterday

Maximum temperature yesterday: 75 °F (at 6:53 PM)
Minimum temperature yesterday: 52 °F (at 1:53 AM)
Average temperature yesterday: 64 °F

High & Low Weather Summary for the Past Weeks

 TemperatureHumidityPressure
High91 °F (Jun 23, 3:53 PM)93% (Jun 16, 12:53 AM)30.34 "Hg (Jun 16, 12:53 AM)
Low40 °F (Jun 17, 4:53 AM)15% (Jun 22, 4:53 PM)29.61 "Hg (Jun 14, 10:53 AM)
Average63 °F41%30.02 "Hg
* Reported Jun 11 12:53 PM — Jun 26 12:53 PM, Helena, Weather by CustomWeather, © 2016

Note: Actual official high and low records may vary slightly from our data, if they occured in-between our weather recording intervals... More about our weather records

Advertising

Helena Weather History for the Previous 24 Hours

Scroll right to see more
 ConditionsComfort  
Time TempWeatherWind HumidityBarometerVisibility
12:53 PM
Sun, Jun 26
75 °FSunny.6 mph22%30.18 "Hg10 mi
11:53 AM74 °FSunny.7 mph26%30.20 "Hg10 mi
10:53 AM70 °FSunny.5 mph30%30.20 "Hg10 mi
9:53 AM66 °FSunny.3 mph40%30.22 "Hg10 mi
8:53 AM61 °FSunny.3 mph50%30.22 "Hg10 mi
7:53 AM56 °FSunny.5 mph58%30.22 "Hg10 mi
6:53 AM52 °FSunny.No wind64%30.23 "Hg10 mi
5:53 AM51 °FClear.No wind61%30.21 "Hg10 mi
4:53 AM50 °FClear.No wind63%30.19 "Hg10 mi
3:53 AM58 °FClear.5 mph47%30.16 "Hg10 mi
2:53 AM59 °FClear.6 mph46%30.17 "Hg10 mi
1:53 AM63 °FClear.12 mph41%30.15 "Hg10 mi
12:53 AM64 °FClear.10 mph38%30.14 "Hg10 mi
11:53 PM
Sat, Jun 25
61 °FClear.No wind42%30.16 "Hg10 mi
10:53 PM66 °FClear.5 mph34%30.15 "Hg10 mi
9:53 PM64 °FSunny.7 mph35%30.14 "Hg10 mi
8:53 PM71 °FSunny.12 mph27%30.12 "Hg10 mi
7:53 PM74 °FSunny.15 mph24%30.09 "Hg10 mi
6:53 PM75 °FSunny.15 mph23%30.11 "Hg10 mi
5:53 PM72 °FSunny.13 mph25%30.12 "Hg10 mi
4:53 PM74 °FSunny.22 mph23%30.12 "Hg10 mi
3:53 PM74 °FSunny.13 mph23%30.14 "Hg10 mi
2:53 PM73 °FPassing clouds.20 mph25%30.16 "Hg10 mi
Weather by CustomWeather, © 2016

See weather overviewHow to use our weather pages